Content
SEND FEEDBACK

Daily
Averages
Monthly
Summary
United States of America

ELGIN, OKLAHOMA


Home > North America > United States > Oklahoma
Elevation: 1188 feet     Latitude: 34 39N     Longitude: 098 24W

WEATHER
 
SELECT A DAY
Number of Records: 134,041;   Date Range: 1/1/95 - 8/12/14
 
SHARE

PRINT THIS DATA

[ ← Previous Day ]
WEATHER ALMANAC - FEBRUARY 1, 2013
[ Next Day → ]
[ °C ]   °F
Weather ElementAverageHighLow
Temperature35.9 °F52 °F (4:55 pm)22.5 °F (5:55 am)
Dewpoint20.4 °F29.1 °F (9:55 pm)11.3 °F (9:55 am)
Humidity55.5 %75 % (11:55 pm)37 % (11:55 am)
Barometer30.29 in30.43 in (7:55 am)30.14 in (5:55 pm)
Wind Speed7.3 mph15 mph (2:55 pm)
Weather ElementAverage
Visibility10 mi
Wind DirectionESE (97.8 °)

Weather ElementTotal
Precipitation---
Heating Degree Days27.8 (Base 65)
Averaged from 23 records on February 1, 2013
WEATHER CONDITIONS BREAKOUT
WIND DIRECTION BREAKOUT
WEATHER BY HOUR - FEBRUARY 1, 2013
[ °C ]   °F
Local TimeTemperatureDewpointHumidityBarometerVisibilityWind DirectionWind SpeedGust SpeedPrecipitationEventsConditions
1:55 AM26.4 °F14.2 °F60 %30.39 in10.0 miNE (40°)10.4 mphClear
2:55 AM25.2 °F14.2 °F63 %30.40 in10.0 miNE (40°)10.4 mphClear
3:55 AM24.3 °F14.4 °F66 %30.40 in10.0 miNE (40°)8.1 mphClear
4:55 AM23.4 °F14.4 °F68 %30.39 in10.0 miNE (40°)6.9 mphClear
5:55 AM22.5 °F14.2 °F71 %30.40 in10.0 miCalmClear
6:55 AM22.6 °F14.4 °F71 %30.41 in10.0 miCalmClear
7:55 AM22.8 °F15.1 °F72 %30.43 in10.0 miCalmClear
8:55 AM25.3 °F14.9 °F65 %30.43 in10.0 miEast (80°)3.5 mphClear
9:55 AM29.3 °F11.3 °F47 %30.41 in10.0 miSE (130°)10.4 mphClear
10:55 AM32.9 °F12.4 °F43 %30.40 in10.0 miSSE (160°)8.1 mphClear
11:55 AM37.8 °F13.6 °F37 %30.35 in10.0 miVariable5.8 mphClear
12:55 PM41.4 °F16.9 °F37 %30.31 in10.0 miSSE (160°)8.1 mphClear
1:55 PM46.6 °F21.6 °F37 %30.25 in10.0 miSouth (180°)10.4 mphClear
2:55 PM48.2 °F23.9 °F39 %30.21 in10.0 miSSE (160°)15.0 mphClear
3:55 PM50.4 °F25.5 °F38 %30.17 in10.0 miSouth (180°)11.5 mphClear
4:55 PM52.0 °F27.1 °F38 %30.15 in10.0 miSSE (150°)5.8 mphClear
5:55 PM49.5 °F28.4 °F44 %30.14 in10.0 miSouth (180°)9.2 mphClear
6:55 PM45.7 °F28.9 °F52 %30.14 in10.0 miSouth (180°)8.1 mphClear
7:55 PM43.5 °F28.8 °F56 %30.14 in10.0 miSouth (170°)8.1 mphClear
8:55 PM41.4 °F28.9 °F61 %30.15 in10.0 miSouth (170°)6.9 mphClear
9:55 PM40.5 °F29.1 °F64 %30.16 in10.0 miSSE (160°)3.5 mphClear
10:55 PM37.0 °F28.9 °F73 %30.17 in10.0 miNNE (20°)9.2 mphClear
11:55 PM36.1 °F28.8 °F75 %30.16 in10.0 miNorth (10°)9.2 mphClear
Hourly data recorded from KFSI, located miles away from Elgin, Oklahoma







STORIES FROM OUR PARTNERS